Regional Weather Roundup
Issued by NWS

Home | Current Version | Previous Version | Graphics & Text | Print | Product List | Glossary On
Versions: 1 2 3 4 5 6 7 8 9 10 11 12 13 14 15 16 17 18 19 20 21 22 23 24 25 26 27 28 29 30 31 32 33 34 35 36 37 38 39 40 41 42 43 44 45 46 47 48 49 50
000
ASUS43 KFSD 260102
RWRSD

WEATHER ROUNDUP FOR SOUTH DAKOTA
NATIONAL WEATHER SERVICE SIOUX FALLS SD
700 PM CST TUE NOV 25 2014

NOTE: "FAIR" INDICATES FEW OR NO CLOUDS BELOW 12,000 FEET WITH NO
SIGNIFICANT WEATHER AND/OR OBSTRUCTIONS TO VISIBILITY.


SDZ001>005-009-010-012>017-260200-
NORTHWEST AND NORTH CENTRAL SOUTH DAKOTA

CITY           SKY/WX    TMP DP  RH WIND       PRES   REMARKS
BUFFALO          N/A     33  28  81 NW25G39   29.78R WCI  20
FAITH            N/A     34  25  69 NW18      29.80R WCI  23
MOBRIDGE       CLOUDY    35  32  88 CALM      29.72S
$$

SDZ012>016-024>037-041>051-057-063-072>074-260200-
SOUTHWEST AND SOUTH CENTRAL SOUTH DAKOTA

CITY           SKY/WX    TMP DP  RH WIND       PRES   REMARKS
RAPID CTY ARPT CLOUDY    36  24  62 NW17      29.87R
PIERRE         CLOUDY    34  32  92 W10       29.78S WCI  26
CUSTER         LGT SNOW  27  21  78 NW6       29.85R WCI  20
ELLSWORTH AFB  PTCLDY    36  25  65 NW17      29.86R
PHILIP         CLOUDY    37  31  78 NW20G28   29.83R
PINE RIDGE     CLOUDY    34  31  88 W3        29.88R
WINNER         CLOUDY    37  31  78 W10       29.80R
$$

SDZ004>011-016>023-039-040-260200-
NORTHEAST SOUTH DAKOTA

CITY           SKY/WX    TMP DP  RH WIND       PRES   REMARKS
ABERDEEN       LGT SNOW  32  29  88 SE14      29.80F FOG     WCI  22
WATERTOWN      CLOUDY    30  22  72 SE13      29.82F WCI  20
SISSETON         N/A     25  21  85 S9        29.87S WCI  15
$$

SDZ017-020-022-023-036>040-048>070-260200-
SOUTHEAST SOUTH DAKOTA

CITY           SKY/WX    TMP DP  RH WIND       PRES   REMARKS
SIOUX FALLS    CLOUDY    34  22  61 SE14      29.83F WCI  25
HURON          MOCLDY    33  25  72 SE9       29.78F WCI  25
MITCHELL       CLOUDY    34  27  75 SE7       29.79F WCI  28
YANKTON        CLOUDY    39  27  60 S12       29.83F
$$

ABBREVIATIONS USED IN REMARKS
   TC - TEMPERATURE IN CELSIUS
  WCI - WIND CHILL INDEX
   HX - HEAT INDEX
  VSB - VISIBILITY



USA.gov is the U.S. government's official web portal to all federal, state and local government web resources and services.